Stations météo

Publicité
Bordeaux/Merignac, France (7510): Température de l'air & dewpoint: 14.07.2018 01:00:00 - 20.07.2018 01:00:00 (CEST)Bordeaux/Merignac, France (7510): Température de l'air 5cm: 14.07.2018 01:00:00 - 20.07.2018 01:00:00 (CEST)Bordeaux/Merignac, France (7510): Température de l'air -20cm & Température de l'air -100cm: 14.07.2018 01:00:00 - 20.07.2018 01:00:00 (CEST)Bordeaux/Merignac, France (7510): Vitesse du vent & gusts: 14.07.2018 01:00:00 - 20.07.2018 01:00:00 (CEST)Bordeaux/Merignac, France (7510): Direction du vent: 14.07.2018 01:00:00 - 20.07.2018 01:00:00 (CEST)Bordeaux/Merignac, France (7510): reduced air pressure: 14.07.2018 01:00:00 - 20.07.2018 01:00:00 (CEST)Bordeaux/Merignac, France (7510): visibility: 14.07.2018 01:00:00 - 20.07.2018 01:00:00 (CEST)Bordeaux/Merignac, France (7510): Quantités de précipitations: 14.07.2018 01:00:00 - 20.07.2018 01:00:00 (CEST)
Date & Time tt [°C] td [°C] tt 5cm [°C] tt -20cm [°C] tt -100cm [°C] ff [km/h] ff [knt] fx [km/h] fx [knt] dd ppp [hPa] vv [km] rr [mm]
20.07.2018 01:00:00 20,1 15,1 19,6 26,0 23,0 16 9 23 13 NW 1017,4 60 0,0
20.07.2018 00:00:00 21,1 15,4 20,7 26,3 23,0 13 7 23 12 NNW 1017,1 60 0,0
19.07.2018 23:00:00 21,6 15,0 21,2 26,6 23,0 13 7 24 13 NNW 1016,6 60 0,0
19.07.2018 22:00:00 22,9 15,7 22,5 26,9 23,0 12 6 25 13 NNW 1016,2 60 0,0
19.07.2018 21:00:00 24,5 15,7 24,6 27,1 23,0 18 10 33 18 N 1015,3 57 0,0
19.07.2018 20:00:00 26,1 16,9 28,5 27,3 23,0 19 11 37 20 NNW 1014,9 38 0,0
19.07.2018 19:00:00 27,4 18,7 29,3 27,3 23,0 19 10 35 19 NNW 1014,7 39 0,0
19.07.2018 18:00:00 28,5 19,7 30,8 27,2 23,0 19 10 36 19 WNW 1014,5 38 0,0
19.07.2018 17:00:00 29,0 19,9 31,1 26,8 23,0 20 11 34 18 NW 1014,1 20 0,0
19.07.2018 16:00:00 32,2 17,3 33,0 26,3 23,0 7 4 20 11 S 1014,1 34 0,0
19.07.2018 15:00:00 31,4 16,9 33,5 25,7 23,0 10 6 21 11 SW 1014,5 44 0,0
19.07.2018 14:00:00 30,6 17,3 35,8 25,1 23,0 8 4 22 12 ESE 1015,0 50 0,0
19.07.2018 13:00:00 29,7 17,5 34,7 24,4 23,0 7 4 18 10 S 1015,5 42 0,0
19.07.2018 12:00:00 28,5 18,6 33,3 24,0 23,1 7 4 15 8 SE 1015,8 48 0,0
19.07.2018 11:00:00 26,2 19,1 28,9 23,6 23,0 7 4 14 8 SW 1016,3 32 0,0
19.07.2018 10:00:00 25,1 19,2 27,4 23,4 23,0 6 4 12 6 SSE 1016,1 23 0,0
19.07.2018 09:00:00 23,8 18,2 22,9 23,4 23,1 0 0 9 5 N 1016,0 14 0,0
19.07.2018 08:00:00 20,7 16,9 17,9 23,5 23,1 5 3 10 5 NNE 1015,9 16 0,0
19.07.2018 07:00:00 18,2 16,5 16,8 23,7 23,0 5 3 20 11 NNE 1015,6 9 0,0
19.07.2018 06:00:00 17,9 16,4 16,2 23,9 23,0 3 1 15 8 NNW 1015,7 0,3 0,0
19.07.2018 05:00:00 18,3 16,6 16,5 24,1 23,0 4 2 6 3 NNW 1015,6 3,5 0,0
19.07.2018 04:00:00 18,7 17,2 17,7 24,3 23,0 5 3 7 4 N 1015,8 10 0,0
19.07.2018 03:00:00 19,4 17,4 18,6 24,6 23,1 6 4 12 6 NW 1016,3 24 0,0
19.07.2018 02:00:00 20,1 18,0 19,0 24,8 23,1 7 4 9 5 NNW 1016,3 23 0,0
19.07.2018 01:00:00 21,0 18,4 20,2 25,0 23,0 8 4 13 7 NNE 1016,4 26 0,0
19.07.2018 00:00:00 21,8 18,6 20,9 25,2 23,1 5 3 13 7 N 1016,8 39 0,0
18.07.2018 23:00:00 22,8 18,8 22,1 25,4 23,1 3 2 12 6 NNW 1017,0 37 0,0
18.07.2018 22:00:00 23,3 18,8 22,4 25,6 23,1 5 3 18 10 N 1016,1 46 0,0
18.07.2018 21:00:00 25,1 19,2 25,2 25,7 23,1 12 6 28 15 N 1015,5 52 0,0
18.07.2018 20:00:00 26,8 18,1 26,8 25,8 23,1 12 7 27 15 NE 1014,7 40 0,0
18.07.2018 19:00:00 26,7 18,6 27,0 25,8 23,1 16 9 34 18 ENE 1014,4 42 0,0
18.07.2018 18:00:00 25,6 19,5 23,5 25,9 23,1 23 12 40 21 NNE 1014,7 53 0,0
18.07.2018 17:00:00 24,9 19,5 22,2 25,8 23,1 18 10 26 14 N 1015,4 33 0,2
18.07.2018 16:00:00 28,9 17,4 31,1 25,5 23,1 13 7 31 17 NNE 1014,7 58 0,0
18.07.2018 15:00:00 28,5 17,4 32,3 25,1 23,1 16 9 33 18 NE 1014,5 52 0,0
18.07.2018 14:00:00 28,0 17,2 31,4 24,6 23,1 19 10 33 18 NE 1014,6 19 0,0
18.07.2018 13:00:00 27,3 16,6 31,8 24,1 23,1 17 9 32 17 NE 1015,1 45 0,0
18.07.2018 12:00:00 25,9 17,8 28,0 23,7 23,2 13 7 25 13 ENE 1015,4 54 0,0
18.07.2018 11:00:00 23,6 16,6 24,4 23,5 23,2 11 6 19 11 NNE 1016,2 45 0,0
18.07.2018 10:00:00 21,9 16,4 19,9 23,5 23,2 11 6 20 11 NE 1016,2 41 0,0
18.07.2018 09:00:00 19,2 15,3 19,3 23,5 23,2 12 6 22 12 NNE 1016,5 55 0,0
18.07.2018 08:00:00 18,7 15,0 17,5 23,6 23,1 13 7 19 11 NE 1016,8 54 0,0
18.07.2018 07:00:00 17,5 14,6 16,9 23,9 23,1 11 6 19 10 NNE 1016,9 41 0,0
18.07.2018 06:00:00 17,5 14,8 17,1 24,1 23,1 11 6 16 9 NNE 1017,1 50 0,0
18.07.2018 05:00:00 18,2 14,9 17,8 24,4 23,2 10 5 16 9 NNE 1017,2 56 0,0
18.07.2018 04:00:00 18,3 15,5 17,8 24,6 23,2 9 5 18 10 N 1017,6 52 0,0
18.07.2018 03:00:00 18,6 15,7 18,1 24,9 23,1 11 6 18 10 NNE 1017,9 57 0,0
18.07.2018 02:00:00 18,8 16,0 18,3 25,2 23,2 10 5 19 10 N 1018,3 53 0,0
18.07.2018 01:00:00 19,2 16,8 18,8 25,4 23,1 11 6 19 10 N 1018,5 58 0,0
18.07.2018 00:00:00 20,4 17,6 19,8 25,7 23,1 13 7 18 10 N 1018,5 60 0,0
17.07.2018 23:00:00 21,5 17,7 20,8 26,0 23,2 11 6 16 9 N 1018,5 60 0,0
17.07.2018 22:00:00 22,7 17,4 21,7 26,3 23,2 9 5 21 11 N 1018,2 60 0,0
17.07.2018 21:00:00 24,0 17,5 24,2 26,4 23,2 11 6 19 11 NNE 1018,1 50 0,0
17.07.2018 20:00:00 25,1 17,6 26,0 26,5 23,2 13 7 25 13 N 1018,0 58 0,0
17.07.2018 19:00:00 25,9 18,1 29,0 26,4 23,2 12 7 23 12 N 1018,2 51 0,0
17.07.2018 18:00:00 25,5 18,2 26,8 26,3 23,2 16 8 27 15 N 1018,7 26 0,0
17.07.2018 17:00:00 25,1 18,3 27,0 26,2 23,2 21 12 30 16 NNW 1018,9 40 0,0
17.07.2018 16:00:00 26,8 18,9 28,2 25,8 23,2 9 5 21 11 WNW 1019,1 50 0,0
17.07.2018 15:00:00 26,5 16,1 30,0 25,4 23,2 13 7 21 11 SW 1019,3 58 0,0
17.07.2018 14:00:00 26,4 16,6 28,2 24,9 23,3 6 3 18 10 S 1019,6 45 0,0
17.07.2018 13:00:00 25,1 16,3 26,5 24,5 23,3 5 3 19 10 S 1020,1 57 0,0
17.07.2018 12:00:00 24,2 16,5 26,7 24,1 23,3 9 5 21 11 E 1020,4 53 0,0
17.07.2018 11:00:00 24,0 17,5 25,2 23,7 23,3 7 4 19 10 ESE 1020,7 55 0,0
17.07.2018 10:00:00 21,8 17,6 23,3 23,6 23,3 8 4 16 9 ESE 1020,8 43 0,0
17.07.2018 09:00:00 21,7 16,9 20,4 23,5 23,3 10 6 16 9 NE 1020,8 46 0,0
17.07.2018 08:00:00 19,6 16,8 18,3 23,6 23,3 5 3 12 6 NNE 1020,8 15 0,0
17.07.2018 07:00:00 18,2 17,2 17,7 23,8 23,3 0 0 6 3 N 1020,7 10 0,0
17.07.2018 06:00:00 17,9 17,1 16,2 23,9 23,3 4 2 6 3 SE 1020,6 10 0,0
17.07.2018 05:00:00 17,8 17,0 16,3 24,2 23,3 5 3 6 4 SSW 1020,3 0,3 0,0
17.07.2018 04:00:00 17,9 16,9 16,6 24,3 23,3 6 3 10 5 SSW 1020,4 1,9 0,0
17.07.2018 03:00:00 18,2 17,0 17,2 24,6 23,3 5 3 10 5 SSW 1020,5 16 0,0
17.07.2018 02:00:00 19,4 17,4 18,7 24,8 23,3 6 3 10 5 SW 1020,8 25 0,0
17.07.2018 01:00:00 19,5 17,1 18,6 25,0 23,4 8 4 10 5 WSW 1020,9 26 0,0
17.07.2018 00:00:00 19,5 16,9 18,6 25,3 23,4 8 4 10 6 SW 1020,9 24 0,0
16.07.2018 23:00:00 20,4 16,6 19,5 25,6 23,4 6 3 11 6 WSW 1020,6 36 0,0
16.07.2018 22:00:00 20,8 16,4 20,0 25,9 23,4 10 6 27 14 WNW 1019,9 55 0,0
16.07.2018 21:00:00 22,2 16,0 22,1 26,1 23,4 19 10 33 18 WNW 1019,4 32 0,0
16.07.2018 20:00:00 23,0 15,8 23,9 26,2 23,4 22 12 44 24 WNW 1019,0 27 0,0
16.07.2018 19:00:00 23,2 16,7 24,2 26,2 23,4 24 13 42 23 WNW 1018,2 34 0,0
16.07.2018 18:00:00 24,8 17,0 26,1 26,1 23,4 29 16 47 25 WNW 1017,8 27 0,0
16.07.2018 17:00:00 25,3 17,5 27,4 25,8 23,5 31 17 48 26 WNW 1017,2 15 0,0
16.07.2018 16:00:00 26,5 17,6 28,3 25,5 23,5 24 13 41 22 NW 1017,0 35 0,0
16.07.2018 15:00:00 25,3 17,0 28,7 25,1 23,5 23 13 38 20 NW 1016,8 20 0,0
16.07.2018 14:00:00 26,3 17,1 30,3 24,6 23,5 22 12 34 18 NW 1016,7 40 0,0
16.07.2018 13:00:00 24,7 18,9 26,5 24,2 23,5 14 8 26 14 NW 1016,6 34 0,0
16.07.2018 12:00:00 23,0 19,6 24,8 24,0 23,5 8 4 18 10 NNW 1016,5 34 0,0
16.07.2018 11:00:00 21,4 18,6 22,3 23,8 23,5 4 2 9 5 SW 1016,3 28 0,0
16.07.2018 10:00:00 20,1 17,7 20,8 23,8 23,5 4 2 8 5 SW 1015,8 32 0,0
16.07.2018 09:00:00 19,3 17,1 18,3 23,8 23,5 5 3 16 8 E 1015,5 34 17,3
16.07.2018 08:00:00 17,3 16,5 16,3 24,0 23,6 8 4 15 8 NW 1014,8 20 0,4
16.07.2018 07:00:00 16,7 15,9 16,1 24,2 23,5 6 3 17 9 WNW 1014,9 16 0,4
16.07.2018 06:00:00 16,9 15,9 16,3 24,4 23,5 9 5 14 8 WSW 1014,5 23 0,6
16.07.2018 05:00:00 17,5 16,5 16,9 24,6 23,5 11 6 16 9 WNW 1013,9 20 0,7
16.07.2018 04:00:00 17,6 16,5 17,0 24,9 23,5 11 6 23 12 N 1014,2 38 0,8
16.07.2018 03:00:00 17,9 16,6 16,9 25,3 23,5 19 10 36 20 NW 1015,3 16 0,6
16.07.2018 02:00:00 19,1 16,7 17,5 25,7 23,5 15 8 48 26 N 1015,3 5 1,0
16.07.2018 01:00:00 22,4 17,3 21,6 25,9 23,5 25 14 37 20 W 1015,8 33 1,0
16.07.2018 00:00:00 22,4 17,7 21,2 26,1 23,5 16 9 23 13 W 1014,7 21 0,6
15.07.2018 23:00:00 23,6 17,8 21,8 26,3 23,5 9 5 15 8 WSW 1014,4 20 0,4
15.07.2018 22:00:00 25,6 17,8 23,5 26,4 23,5 7 4 11 6 WSW 1013,5 27 0,6
15.07.2018 21:00:00 27,6 18,0 27,3 26,4 23,5 5 3 16 9 NW 1013,4 35 0,6
15.07.2018 20:00:00 28,5 19,4 30,6 26,3 23,5 8 5 15 8 W 1012,7 38 0,8
15.07.2018 19:00:00 26,3 23,0 25,2 26,3 23,5 2 1 18 10 SSW 1013,0 37 1,6
15.07.2018 18:00:00 21,5 21,2 12,7 27,2 23,5 13 7 121 66 NNE 1013,7 24 6,5
15.07.2018 17:00:00 22,1 15,2 17,9 30,0 23,4 45 24 100 54 SSE 1013,7 4,2 0,6
15.07.2018 16:00:00 31,8 15,7 34,0 29,5 23,4 11 6 23 12 NNE 1012,8 48 0,0
15.07.2018 15:00:00 33,0 14,6 39,7 28,8 23,4 5 3 18 10 SE 1013,3 41 0,0
15.07.2018 14:00:00 32,1 14,7 35,6 28,2 23,4 9 5 19 10 ESE 1014,0 42 0,0
15.07.2018 13:00:00 31,9 15,8 37,2 27,6 23,4 9 5 16 9 SE 1014,3 19 0,0
15.07.2018 12:00:00 30,4 16,8 33,1 27,3 23,4 6 3 13 7 E 1014,5 43 0,0
15.07.2018 11:00:00 29,1 17,6 33,1 27,1 23,3 2 1 12 7 NW 1014,7 31 0,0
15.07.2018 10:00:00 26,9 17,7 28,7 27,1 23,3 7 4 17 9 S 1015,0 26 0,0
15.07.2018 09:00:00 25,7 17,9 24,3 27,2 23,3 7 4 12 7 E 1014,8 28 0,0
15.07.2018 08:00:00 22,8 17,9 18,3 27,4 23,3 0 0 8 4 N 1014,9 12 0,0
15.07.2018 07:00:00 20,1 17,3 18,4 27,7 23,3 2 1 15 8 SSW 1014,6 10 0,0
15.07.2018 06:00:00 21,2 18,0 19,0 27,9 23,3 10 6 13 7 N 1014,1 17 0,0
15.07.2018 05:00:00 21,5 18,5 19,4 28,1 23,2 6 3 19 11 S 1014,8 14 0,2
15.07.2018 04:00:00 23,0 16,1 21,6 28,4 23,2 3 2 6 3 SSE 1014,7 27 0,0
15.07.2018 03:00:00 23,3 15,9 22,3 28,7 23,2 4 2 15 8 NNE 1014,8 32 0,0
15.07.2018 02:00:00 24,0 16,3 23,4 29,0 23,2 11 6 16 8 NNE 1015,0 27 0,0
15.07.2018 01:00:00 24,7 17,4 24,1 29,2 23,2 9 5 14 8 NNE 1015,5 32 0,0
15.07.2018 00:00:00 24,9 16,9 24,0 29,6 23,2 9 5 18 10 NNE 1015,8 36 0,0
14.07.2018 23:00:00 25,9 16,7 25,3 29,9 23,2 13 7 22 12 N 1015,7 40 0,0
14.07.2018 22:00:00 27,2 16,5 26,2 30,1 23,1 14 8 22 12 N 1015,2 53 0,0
14.07.2018 21:00:00 29,4 14,4 29,4 30,3 23,1 14 8 19 11 NNE 1014,7 37 0,0
14.07.2018 20:00:00 30,5 14,2 33,1 30,3 23,1 14 8 27 15 NNE 1014,7 47 0,0
14.07.2018 19:00:00 30,9 14,1 35,0 30,2 23,1 11 6 29 16 NNE 1015,0 43 0,0
14.07.2018 18:00:00 31,1 14,3 36,5 29,8 23,1 13 7 28 15 NE 1015,2 49 0,0
14.07.2018 17:00:00 31,7 14,4 37,2 29,3 23,1 13 7 34 18 NNE 1015,5 38 0,0
14.07.2018 16:00:00 31,6 13,4 37,6 28,7 23,1 12 7 25 13 ENE 1015,9 46 0,0
14.07.2018 15:00:00 31,4 13,2 37,7 28,0 23,2 9 5 22 12 ENE 1016,3 52 0,0
14.07.2018 14:00:00 30,9 13,2 36,1 27,3 23,1 5 3 18 10 N 1016,7 44 0,0
14.07.2018 13:00:00 30,0 12,9 35,4 26,7 23,1 7 4 24 13 E 1017,3 24 0,0
14.07.2018 12:00:00 29,5 14,5 33,5 26,3 23,1 10 5 22 12 NE 1017,4 32 0,0
14.07.2018 11:00:00 27,4 14,8 27,3 26,2 23,1 11 6 17 9 E 1017,5 33 0,0
14.07.2018 10:00:00 24,2 15,7 23,6 26,2 23,1 9 5 14 8 NNE 1017,4 37 0,0
14.07.2018 09:00:00 22,3 16,6 21,2 26,4 23,1 4 2 14 8 NE 1017,4 19 0,0
14.07.2018 08:00:00 21,2 16,2 20,4 26,5 23,0 5 3 10 6 SW 1017,2 16 0,0
14.07.2018 07:00:00 21,6 15,9 20,8 26,7 23,0 2 1 11 6 NNE 1016,9 21 0,0
14.07.2018 06:00:00 21,6 15,9 20,2 26,9 23,0 5 3 8 4 ESE 1017,3 22 0,0
14.07.2018 05:00:00 21,3 15,6 20,1 27,2 23,0 2 1 6 3 SW 1017,7 20 0,0
14.07.2018 04:00:00 21,6 15,2 20,6 27,4 23,0 3 1 6 3 NNE 1017,8 22 0,0
14.07.2018 03:00:00 21,2 15,3 20,0 27,7 23,0 3 2 14 8 NW 1018,1 21 0,0
14.07.2018 02:00:00 21,2 15,1 18,9 28,0 23,0 5 3 5 3 N 1018,1 24 0,0
14.07.2018 01:00:00 21,7 14,6 19,6 28,4 23,0 2 1 12 6 NNW 1018,4 30 0,0

tt = Température de l'air
td = dewpoint
tt 5cm = Température de l'air 5cm
tt -20cm = Température de l'air -20cm
tt -100cm = Température de l'air -100cm
ff = Vitesse du vent
fx = gusts
dd = Direction du vent
ppp = reduced air pressure
vv = visibility
rr = Quantités de précipitations

stations d'obs. à proximité